Temp
16 16 16 16 17 16 16 17 16 16 16 16 16 17 17 17 17 16 16 15 15 15 15 15 14 14 14 13 13 13 12 12 12 12 12 12 12 12 12 12 11 11 11 11 11 11 11 11 11 11 11 12 12 12 11 11 12 12 12 12 12 11 12 13 14 14 12 11 12 11 10 10 11 10 9 9 9 9 9 8 8 8 8 9 9
17 17 16 16 17 17 17 17 16 16 16 16 17 17 17 17 16 16 16 15 15 15 15 14 14 14 14 13 13 13 13 12 12 12 12 12 11 12 12 12 11 11 11 11 11 11 11 11 11 11 11 11 11 11 11 11 11 11 11 12 12 11 11 12 13 13 13 12 12 12 11 11 11 10 10 10 9 9 9 9 9 8 8 8 9
17 17 17 17 17 17 17 16 16 16 16 16 17 17 16 16 16 16 16 15 15 15 15 14 14 14 14 14 13 13 13 12 12 12 12 12 12 12 12 11 11 11 11 11 11 11 11 11 11 11 11 11 11 11 11 11 11 11 11 11 11 11 11 11 12 13 13 12 11 12 11 11 11 10 10 10 10 10 10 9 9 9 9 8 8
17 17 17 17 17 17 16 16 16 16 16 16 17 16 16 15 15 16 16 15 15 15 15 14 14 14 14 14 13 13 13 12 12 12 12 12 12 12 12 11 11 11 11 11 11 11 11 11 11 11 11 11 11 11 11 11 11 11 11 11 11 11 11 11 11 12 12 12 12 11 11 11 11 10 10 10 10 10 10 10 9 9 9 9 9
17 17 17 17 17 17 16 15 16 16 16 16 16 16 16 15 15 15 15 16 15 15 15 14 14 14 14 14 13 13 13 12 12 12 12 12 12 12 12 11 11 11 11 11 11 11 11 11 11 11 11 11 11 11 11 11 11 11 11 11 11 11 11 11 11 12 12 12 12 11 11 11 11 11 10 10 11 11 11 11 10 10 10 9 9
17 17 17 17 17 16 16 16 16 16 16 16 16 16 15 15 15 15 15 15 15 15 14 14 14 14 14 14 13 13 13 12 12 12 12 12 12 12 11 11 11 11 11 11 11 11 11 11 11 11 11 11 11 10 10 10 10 10 11 11 11 11 11 11 11 11 12 12 12 12 11 11 11 11 10 10 11 11 11 11 11 11 10 10 9
17 18 17 16 16 16 16 16 16 16 16 16 16 15 15 15 15 15 15 14 15 15 15 14 14 14 14 14 13 13 13 12 12 12 12 12 12 11 11 11 11 11 11 11 11 11 11 11 11 11 10 10 10 10 10 10 10 10 10 10 11 11 11 11 12 12 12 12 12 12 12 11 11 11 10 10 11 11 10 11 11 11 11 10 9
17 18 17 16 15 15 15 16 16 16 16 16 16 15 15 15 15 15 14 14 14 15 15 14 14 14 14 14 13 13 12 12 12 12 12 12 11 11 11 11 11 11 11 11 11 11 11 10 10 10 10 10 10 10 10 10 10 10 10 10 10 11 11 12 12 12 12 12 12 12 11 11 11 11 10 10 11 11 10 10 11 11 11 11 10
17 17 17 16 15 15 15 16 16 15 16 16 15 15 15 15 15 15 14 14 14 15 15 15 14 14 14 13 13 12 12 12 12 12 12 12 11 11 11 11 11 11 11 11 11 11 11 10 10 9 9 9 9 9 9 9 9 10 9 10 10 11 11 11 12 12 12 12 12 12 11 11 10 10 10 10 10 10 10 10 11 11 11 11 10
17 17 17 16 15 15 16 16 15 16 16 16 15 15 15 15 15 15 14 14 14 14 15 15 14 14 14 13 13 12 12 12 11 11 12 11 11 11 11 11 11 11 11 11 11 11 10 10 9 9 8 8 8 8 8 8 8 8 8 8 9 10 10 11 11 12 12 12 11 11 11 10 10 10 9 9 10 10 10 10 10 11 11 11 11
17 17 17 16 15 16 16 15 15 15 15 15 15 15 15 15 14 14 14 13 13 14 15 15 14 14 14 13 12 12 12 12 11 11 11 11 11 11 11 11 11 11 11 11 11 11 10 10 9 8 8 8 8 8 8 7 7 7 8 8 8 8 9 10 10 11 11 11 10 10 10 10 9 9 9 9 9 10 10 10 10 10 10 10 11
17 17 17 16 16 16 16 15 15 15 14 14 15 15 15 15 14 13 13 13 13 13 14 14 14 14 14 13 12 12 12 11 11 11 10 10 11 11 11 11 11 11 11 11 11 11 11 10 9 9 9 8 8 8 7 7 7 7 7 7 8 8 8 8 9 9 10 10 10 9 9 9 9 9 8 8 9 9 10 10 9 10 10 10 10
17 17 17 17 17 16 15 15 15 15 14 14 15 15 14 14 13 13 13 13 13 13 14 14 14 14 13 13 13 12 11 11 11 10 10 10 10 11 11 11 11 11 11 11 11 11 11 10 10 10 9 8 8 8 8 7 7 7 7 7 7 7 7 7 7 8 9 9 9 9 8 8 9 8 7 7 8 9 9 10 9 9 10 10 9
17 16 16 17 17 16 15 15 15 14 14 14 14 14 13 13 13 13 13 13 13 13 13 14 13 13 13 13 13 12 11 11 11 10 10 10 10 11 11 11 11 11 11 11 11 11 11 11 10 10 9 9 9 9 8 8 8 8 8 8 8 8 8 7 7 7 8 8 9 8 8 7 8 7 7 7 7 8 9 9 9 9 10 10 10
17 16 16 17 16 15 14 14 14 14 14 13 13 13 13 13 13 12 12 12 12 13 13 13 13 13 13 13 13 12 11 11 11 10 10 10 10 10 11 11 11 11 11 11 11 11 11 11 11 10 10 10 10 9 9 9 9 9 9 9 9 8 8 7 7 7 7 8 8 8 7 7 7 7 6 7 7 7 8 9 9 10 11 11 11
17 16 16 16 15 14 14 14 14 14 13 13 13 13 13 13 13 12 12 12 12 12 13 13 13 13 13 13 12 11 11 11 10 10 10 9 9 10 11 11 11 11 11 11 11 11 10 10 11 10 10 10 10 9 9 10 10 10 10 9 9 9 8 7 7 7 7 7 7 7 7 7 6 7 6 7 7 7 8 10 9 10 11 11 11
17 16 16 16 15 14 14 14 13 13 14 13 13 13 13 12 13 13 12 12 12 12 12 12 13 12 12 12 12 11 11 11 10 10 10 9 9 10 11 11 11 11 11 10 10 10 10 10 11 11 10 10 9 9 9 9 10 10 10 10 10 9 9 7 7 7 7 7 7 7 7 7 7 7 6 7 7 7 8 9 9 10 11 11 11
16 16 16 15 14 14 14 14 13 13 14 14 13 13 12 12 13 12 12 12 12 12 12 12 12 12 12 12 11 11 11 11 10 10 9 9 9 10 11 11 11 11 11 10 10 10 10 10 10 10 10 10 9 9 9 9 10 10 10 10 10 10 9 8 8 8 7 7 7 7 7 7 7 7 7 7 7 7 7 8 9 9 10 11 11
16 15 15 14 14 14 14 14 14 14 13 13 13 12 12 12 13 12 12 12 12 12 12 12 12 12 11 11 11 11 11 11 10 9 9 9 9 10 11 12 11 11 11 11 11 11 10 9 9 10 10 10 9 9 9 9 10 10 10 10 11 10 9 9 9 9 8 8 8 8 8 8 7 7 7 7 7 7 7 8 8 9 10 10 10
16 15 14 14 14 14 13 14 15 14 13 13 12 12 12 12 13 12 11 11 11 11 11 11 11 11 11 11 10 10 10 11 10 9 9 9 9 10 11 12 11 11 11 11 11 11 10 9 9 9 9 9 9 9 9 9 9 10 10 11 11 10 9 9 9 9 9 9 9 9 9 9 8 8 8 8 8 7 7 7 7 8 9 9 10
15 15 14 14 13 13 13 13 14 14 13 13 12 11 12 12 13 12 11 11 11 11 11 11 10 10 10 10 10 9 10 10 10 9 9 8 9 10 11 12 11 11 11 11 11 11 11 10 10 9 9 9 9 9 9 8 8 9 10 10 10 9 9 9 9 8 9 10 10 10 10 10 10 10 9 9 9 8 8 8 8 8 8 8 9
15 15 15 14 13 13 12 13 13 12 13 13 12 12 12 12 12 12 12 11 11 10 10 10 10 9 9 9 9 9 9 10 10 9 9 8 8 9 10 11 11 11 11 12 12 12 11 11 10 9 9 9 9 8 8 8 8 8 9 9 8 8 8 9 9 9 10 11 11 11 11 11 11 11 10 10 9 8 8 8 8 8 8 8 8
15 15 14 13 13 12 12 12 11 11 11 12 12 12 12 11 11 11 11 10 10 10 10 10 9 9 9 8 8 8 9 9 9 9 9 8 8 9 9 10 10 11 12 12 12 12 11 10 9 8 9 9 8 8 8 8 8 8 8 8 8 8 8 9 10 10 11 11 11 11 11 11 11 11 10 10 9 8 8 8 8 8 8 8 7
14 14 13 12 11 11 11 11 10 10 10 11 11 12 11 10 10 10 10 9 9 9 9 9 9 9 8 8 8 8 8 9 9 9 9 8 8 8 8 9 9 10 11 11 11 11 11 9 8 8 8 8 8 8 8 8 8 8 8 8 8 7 8 9 10 10 11 11 11 11 11 11 11 10 10 9 9 8 8 8 8 8 8 8 8
13 13 12 11 11 10 10 10 10 10 10 10 11 11 10 10 9 9 9 9 9 8 8 8 8 8 7 7 7 7 7 7 8 9 8 8 8 8 8 8 9 9 10 11 10 10 10 9 8 8 8 8 8 8 8 8 8 8 8 8 7 8 9 10 10 11 11 11 11 11 11 11 10 10 9 8 8 9 9 9 9 9 9 9 9
12 12 11 11 10 10 10 10 10 9 9 9 10 10 9 9 9 8 8 8 8 8 7 7 7 7 7 8 8 7 7 7 7 8 8 7 7 7 8 8 8 8 9 9 9 9 8 8 7 7 7 7 7 7 8 8 7 7 7 7 7 9 10 10 11 11 11 11 11 11 11 11 10 9 8 8 9 10 9 9 9 10 10 10 10
12 11 11 10 10 9 9 9 9 8 8 9 9 8 8 9 9 8 8 8 8 8 7 8 8 8 8 8 8 7 7 7 7 7 7 7 7 7 7 7 8 8 8 8 8 8 8 7 7 7 7 7 7 7 7 7 7 7 7 8 8 9 10 10 10 10 11 11 11 11 11 10 10 10 9 9 10 10 9 9 9 10 10 10 10
12 11 10 10 9 9 9 9 8 8 8 8 8 8 8 9 9 9 9 8 8 8 8 8 9 8 8 8 8 7 7 8 8 7 7 7 7 8 7 7 7 8 8 9 8 8 7 7 7 7 7 7 7 8 8 8 8 8 9 9 9 9 9 9 9 9 10 10 10 10 10 10 10 10 10 10 11 10 10 9 9 10 10 10 11
12 11 10 10 9 9 9 8 8 8 8 8 7 8 8 8 9 9 9 9 9 10 10 9 9 9 8 8 7 7 8 8 8 8 8 8 8 8 8 8 8 8 9 9 9 8 8 7 7 8 8 8 9 9 9 9 9 9 9 9 10 10 9 9 10 10 10 10 10 10 10 10 10 11 11 11 11 10 10 9 9 9 10 10 11
12 11 10 10 9 9 8 8 8 8 8 8 8 8 8 8 8 8 9 9 10 11 11 11 10 9 8 7 7 8 9 9 9 8 8 8 8 8 8 8 8 8 9 8 8 8 8 8 8 9 9 9 10 10 10 10 10 10 10 9 9 10 10 10 10 10 10 9 10 10 10 10 10 10 11 11 10 10 10 9 9 10 10 10 11
12 11 10 9 9 8 8 8 8 8 9 9 8 8 7 7 7 8 9 9 10 10 10 10 10 9 8 7 8 9 9 10 9 8 8 8 8 8 8 8 8 8 8 8 8 8 9 9 9 9 10 10 10 10 10 10 10 10 10 10 10 10 10 10 10 10 9 9 9 9 9 10 10 10 10 10 10 10 10 10 10 10 10 11 11
12 12 10 9 8 8 8 8 8 9 9 9 9 8 8 8 7 7 7 8 9 9 9 9 9 9 8 8 9 9 9 9 9 9 9 9 8 8 8 7 7 7 7 7 8 9 9 9 9 10 10 10 10 10 10 10 10 10 10 10 10 10 10 10 10 9 9 9 9 9 9 9 9 9 9 9 9 9 10 10 10 10 10 10 10
12 12 10 9 8 8 8 8 8 8 9 10 9 9 10 9 8 7 6 6 7 8 8 8 8 8 8 8 8 9 9 9 9 9 9 9 9 8 8 8 8 7 7 7 8 9 9 9 9 10 10 10 10 10 10 10 10 10 10 10 10 10 10 9 9 9 9 9 9 9 9 9 9 9 9 9 9 9 10 10 10 10 10 10 10
11 10 9 9 8 8 8 8 8 9 10 11 10 10 10 11 11 9 7 6 6 7 7 8 8 8 8 8 8 8 8 8 8 8 9 9 8 8 8 8 7 7 7 7 8 8 9 9 10 10 11 11 10 10 10 10 10 10 10 10 10 10 10 9 9 9 9 8 8 9 9 9 9 9 9 9 9 9 9 10 10 10 10 10 10
11 10 9 9 9 9 9 9 9 9 10 10 10 10 11 11 11 10 9 8 7 7 7 7 7 8 8 8 8 7 7 8 8 8 8 8 8 8 8 7 6 6 6 7 8 9 9 9 10 10 10 10 10 10 10 10 10 10 10 10 10 10 10 9 9 9 9 9 9 9 9 9 9 9 9 9 9 9 9 9 9 10 10 10 9
11 11 9 9 9 10 10 11 11 10 10 10 10 11 12 12 11 10 9 8 8 8 8 8 8 8 8 8 8 7 7 7 7 7 7 8 8 7 7 7 7 7 7 7 8 9 9 9 10 10 10 10 11 11 10 10 10 10 10 10 10 10 10 10 9 9 9 9 9 9 8 8 8 8 8 9 9 9 9 9 9 9 9 9 9
12 12 10 10 10 11 11 12 12 11 10 10 11 11 11 11 10 9 8 8 8 8 9 9 8 7 7 7 7 7 6 6 6 6 7 7 7 7 7 7 8 8 8 8 8 9 9 9 9 10 10 10 11 11 11 10 10 10 10 10 10 10 9 9 9 9 8 8 8 8 8 8 8 8 8 8 8 9 9 9 9 9 8 8 8
13 13 12 11 11 12 12 12 12 11 10 10 10 10 10 9 9 8 8 7 7 8 9 9 8 8 7 6 6 6 6 5 5 5 6 6 5 5 6 7 8 9 9 9 9 9 9 9 9 10 10 10 10 10 10 10 10 10 10 10 9 9 9 8 8 8 8 8 8 8 8 8 8 8 8 8 8 8 8 8 8 8 8 8 8
13 13 12 12 12 12 12 12 12 10 10 10 10 9 8 8 8 8 7 7 7 8 9 9 9 9 8 7 5 5 5 5 5 5 5 5 4 4 5 7 8 9 9 10 9 9 9 9 9 9 10 10 10 10 10 10 10 10 10 9 9 9 9 8 8 8 8 8 8 9 9 9 9 9 9 9 9 8 8 8 8 8 8 8 8
13 13 11 11 11 12 12 12 12 11 11 11 10 10 8 8 7 7 7 7 7 7 8 8 9 9 8 7 6 6 5 5 5 5 5 5 5 5 5 7 8 9 9 9 9 9 9 9 9 9 9 10 10 9 9 9 9 10 9 9 9 9 9 9 9 9 9 9 9 9 9 9 9 9 9 9 9 8 8 8 8 8 8 8 8
12 11 10 10 10 11 12 12 11 11 11 10 10 9 8 8 7 7 7 6 6 6 6 7 8 8 8 7 7 7 6 6 5 5 5 5 5 5 6 7 8 8 9 9 9 8 8 8 8 9 9 9 9 9 9 9 9 9 9 9 9 9 9 9 9 9 9 9 9 9 9 9 9 9 9 9 8 8 8 8 8 8 8 8 8
10 10 10 9 9 10 11 11 10 10 10 9 9 9 8 7 7 7 6 6 6 6 6 6 7 7 7 7 7 7 6 6 6 6 6 6 6 6 6 7 7 8 8 8 8 8 7 7 8 8 8 8 8 8 8 8 8 9 9 9 9 9 9 9 9 9 9 9 9 8 8 8 8 8 8 8 8 8 8 8 8 8 8 8 8
10 10 9 9 9 9 9 10 9 9 9 9 9 8 8 7 7 6 6 6 6 6 5 5 6 6 6 6 6 6 6 6 6 6 6 6 6 6 6 7 7 7 7 7 7 7 7 7 7 7 7 7 7 7 8 8 8 8 8 9 9 9 9 9 9 9 9 9 9 8 8 8 8 8 8 8 8 8 8 8 8 8 8 8 8
10 9 9 9 8 8 8 8 8 8 8 8 8 7 7 7 6 6 6 6 5 5 5 5 5 6 6 6 6 6 6 6 6 6 6 6 6 6 6 7 7 7 7 7 7 7 7 7 6 6 6 6 7 7 7 7 8 8 8 8 8 8 8 8 9 9 9 8 8 8 8 8 8 8 8 8 8 8 8 8 8 8 8 8 8
10 9 9 8 8 8 8 7 7 7 7 7 7 6 6 6 6 5 5 5 5 5 5 5 5 5 5 5 6 6 6 6 6 6 6 6 6 6 6 7 7 7 7 7 7 7 7 6 6 6 6 6 6 6 7 7 7 8 8 8 8 8 8 8 8 8 8 8 8 8 8 8 8 8 8 8 8 8 8 8 8 8 8 7 7
10 10 9 9 9 8 7 7 7 7 7 6 6 6 5 6 6 5 4 4 4 5 5 5 4 4 5 5 5 5 5 5 5 5 5 6 6 6 6 6 6 7 7 7 7 7 7 7 6 6 7 7 7 6 6 7 7 7 7 7 7 7 7 7 7 7 7 7 7 7 7 7 7 8 8 8 8 8 8 8 8 8 7 7 7
9 9 9 9 8 7 7 6 6 6 5 6 6 5 5 5 5 5 5 5 5 5 4 4 4 5 5 5 5 5 5 5 5 5 6 6 6 6 6 6 6 6 6 7 7 7 7 7 7 7 7 7 6 6 6 6 6 6 6 6 6 6 6 7 7 7 7 7 7 7 7 7 7 7 7 7 7 7 7 7 7 7 7 7 7
8 8 8 7 7 7 6 6 5 5 5 5 4 4 4 4 4 5 5 5 5 5 4 4 4 5 5 6 6 6 6 6 6 6 6 6 5 6 6 6 6 6 7 7 7 6 6 6 7 7 7 6 6 6 6 6 6 5 5 5 6 6 6 6 6 6 6 6 6 6 6 6 6 6 6 6 6 6 6 6 6 6 6 6 6
7 7 6 6 6 6 5 5 5 4 4 4 3 3 4 4 4 4 5 5 4 4 4 4 5 5 6 6 6 6 6 5 5 5 5 5 5 6 6 6 7 7 7 6 6 6 7 7 6 6 6 6 5 5 5 5 5 5 5 5 5 5 5 5 5 5 5 5 5 5 4 4 4 4 4 4 4 4 4 4 4 5 5 5 5
6 6 5 5 5 4 4 4 4 4 4 4 3 3 3 3 4 4 5 4 4 4 4 4 5 5 5 5 5 5 5 5 5 5 5 6 6 6 6 7 7 6 6 6 7 7 6 6 5 5 5 4 4 3 3 4 4 4 4 4 4 4 4 4 4 4 4 4 4 4 3 3 2 2 3 3 3 3 3 3 3 3 3 4 4
5 5 5 4 4 4 4 4 4 4 4 3 3 3 3 4 4 4 4 4 4 4 4 5 5 5 5 5 5 5 5 6 6 6 6 6 6 6 6 6 6 6 6 6 6 5 4 3 3 3 3 3 2 2 2 2 2 2 2 2 2 2 2 2 2 2 3 3 3 2 2 2 1 1 1 2 2 2 2 2 2 2 2 2 2
Height
788 793 797 800 802 804 806 809 812 814 816 818 820 822 824 825 827 828 829 831 832 834 835 836 837 839 840 841 841 842 843 844 845 846 847 848 849 850 851 852 853 854 855 856 856 856 856 856 855 855 855 855 854 854 853 852 851 851 850 850 849 848 847 846 845 846 847 846 845 843 842 839 838 836 835 833 832 830 828 826 824 822 820 818 816
788 792 795 799 801 802 805 807 810 812 814 816 819 821 823 824 826 827 829 831 832 833 835 836 837 838 839 840 841 842 843 844 845 846 847 849 850 851 852 853 854 855 855 856 856 857 857 857 856 856 856 856 856 855 854 854 853 852 852 851 851 851 849 848 848 847 847 847 846 844 843 841 839 837 836 834 833 831 829 827 825 823 821 819 818
788 790 794 797 799 801 803 806 808 810 812 814 817 820 821 823 825 826 828 830 832 833 834 835 837 838 839 840 841 842 843 844 845 846 847 849 850 851 852 853 855 855 856 856 857 857 858 857 857 857 857 857 857 856 856 855 855 854 854 854 853 852 852 851 850 849 848 848 847 845 844 842 840 839 837 836 834 832 830 829 827 825 823 820 818
788 790 792 795 797 799 802 803 805 807 809 813 816 818 820 822 824 825 827 829 831 833 834 835 836 837 838 840 841 842 843 844 845 846 848 849 850 852 853 854 855 856 856 857 857 858 858 858 858 858 858 858 858 857 857 856 856 855 855 855 854 854 853 852 851 850 849 849 848 847 845 843 842 840 839 837 835 833 831 830 828 826 824 821 819
787 789 791 793 795 798 800 801 803 805 808 811 814 817 819 821 823 824 826 828 830 832 834 835 836 837 838 839 841 842 843 844 845 846 848 849 851 852 853 854 855 856 856 857 858 859 859 859 859 859 859 859 858 858 858 857 857 857 857 856 856 855 854 854 853 852 851 850 849 848 846 845 843 842 840 838 836 834 832 831 829 827 825 823 820
785 787 789 791 794 796 798 800 803 805 807 810 813 816 818 820 822 823 825 828 830 832 833 834 835 836 837 839 840 842 843 844 845 846 848 850 851 852 853 854 855 856 857 857 858 859 859 859 859 859 860 859 859 859 859 859 858 858 858 857 857 856 856 855 854 853 852 851 849 848 847 846 845 843 841 839 837 835 833 831 829 828 826 823 821
783 786 788 790 793 797 799 801 802 804 807 810 812 815 817 819 821 823 825 827 829 831 832 833 834 836 837 839 840 841 842 843 845 847 848 850 851 852 853 854 855 856 857 858 859 859 860 860 860 860 860 860 860 860 860 860 860 859 859 859 858 857 857 856 855 854 853 852 850 850 849 848 846 845 843 841 839 837 835 832 830 828 826 824 822
782 785 787 789 792 795 798 800 801 803 806 809 812 814 816 818 820 822 825 827 829 830 832 833 834 836 837 839 840 841 842 843 845 847 848 850 851 852 853 854 855 856 857 858 859 860 860 861 861 861 861 861 860 860 860 860 861 861 860 860 859 858 857 857 856 855 854 852 851 851 850 849 848 846 845 842 840 838 837 835 832 830 828 826 824
781 784 786 788 790 792 794 797 800 802 805 808 811 813 814 817 819 821 824 826 828 830 831 833 834 836 837 838 840 841 842 844 845 847 848 849 851 852 853 854 855 856 857 858 859 860 860 861 862 862 862 861 861 861 861 861 861 861 861 860 860 859 858 858 856 855 854 853 853 852 852 851 849 848 846 844 842 841 839 837 835 832 830 828 826
779 782 784 786 789 791 793 796 798 800 804 807 809 810 812 815 817 820 823 825 827 829 831 832 834 835 836 838 839 841 842 843 845 846 848 849 851 852 853 854 855 856 857 858 859 860 861 861 862 862 862 862 862 862 862 862 862 862 861 861 860 860 860 859 858 857 856 855 854 854 853 853 852 850 848 847 845 843 841 839 837 835 832 830 827
777 780 783 785 788 790 792 795 797 799 802 804 806 808 811 813 816 818 821 823 825 828 829 831 833 834 835 837 838 840 841 843 844 846 847 849 850 852 853 854 855 856 857 858 859 860 861 862 862 862 863 863 863 863 863 863 863 863 862 861 861 860 860 860 859 859 858 857 856 856 855 855 854 853 851 849 847 845 843 841 839 837 835 832 830
775 778 780 783 786 788 791 793 795 797 799 801 804 806 809 812 814 816 819 821 823 826 828 830 831 833 834 836 837 839 840 841 843 845 846 848 850 851 853 854 855 856 857 857 858 859 860 861 862 863 863 863 863 864 864 864 864 864 864 863 862 862 861 861 860 860 859 859 858 858 858 857 856 855 853 851 849 847 845 843 842 840 838 836 833
773 776 779 781 784 786 789 791 793 796 797 799 802 805 808 810 813 815 817 819 822 824 826 828 830 831 833 834 836 838 839 840 842 844 846 847 849 851 852 854 855 856 857 857 858 859 860 861 861 862 863 863 864 864 864 865 865 865 865 864 864 864 863 863 862 861 861 860 860 860 860 859 858 856 855 853 851 849 847 845 843 841 839 838 836
772 774 777 779 782 785 787 788 790 793 796 798 801 804 807 809 812 814 816 818 821 823 825 827 828 830 832 833 836 837 838 840 842 843 845 846 848 850 852 853 854 856 856 857 858 858 859 860 861 862 862 863 864 865 865 865 865 866 866 866 865 865 865 864 864 863 862 862 861 861 861 860 859 858 856 854 852 850 848 846 845 843 841 839 837
770 772 775 777 780 783 784 785 788 791 794 797 800 803 806 808 811 813 815 817 820 822 824 826 827 829 831 833 835 836 837 839 841 843 844 845 847 849 851 852 854 855 856 857 858 858 859 860 860 861 862 863 863 864 864 865 865 866 866 866 866 866 866 866 865 864 864 863 862 862 862 861 860 858 856 854 852 851 849 848 846 844 841 839 837
769 772 774 777 779 780 782 784 786 788 792 796 799 802 805 806 809 811 813 816 819 821 823 825 826 828 830 832 834 835 836 838 841 842 843 845 847 849 850 852 853 854 855 857 857 858 858 859 860 860 861 862 863 863 863 864 865 865 866 866 866 866 866 866 865 864 864 863 863 862 862 861 860 858 856 854 852 850 849 848 846 844 841 839 837
769 772 774 776 777 777 779 782 784 786 790 794 797 800 802 804 806 808 811 815 817 819 821 823 825 827 828 831 833 833 835 837 840 841 843 844 846 848 850 850 852 853 855 856 857 857 858 858 859 860 861 862 863 863 863 863 864 865 865 866 866 866 866 866 866 865 864 863 863 862 862 861 860 858 857 855 853 851 850 848 846 844 842 840 838
768 770 773 774 776 776 777 780 783 785 789 792 796 798 800 802 804 806 809 812 815 817 819 821 824 826 827 829 831 832 834 836 838 841 842 844 846 847 849 849 850 852 853 855 856 856 857 857 858 859 860 861 862 863 863 863 863 864 865 865 865 865 866 866 866 865 864 863 863 862 861 861 860 858 857 856 854 851 850 849 847 845 843 842 840
765 767 769 771 773 775 776 778 781 784 788 791 795 797 798 800 802 805 808 810 813 815 818 820 823 825 826 828 830 831 833 835 837 840 842 843 845 847 848 848 849 851 852 853 855 855 856 857 857 858 859 860 861 862 863 862 863 864 864 864 864 865 866 866 865 865 864 863 863 862 862 861 860 859 858 857 854 853 852 850 848 847 845 843 842
764 766 768 769 771 773 775 777 779 781 785 788 792 796 798 799 801 804 806 809 811 813 816 819 821 823 825 827 829 831 832 834 836 839 841 843 844 846 847 848 848 850 851 852 853 854 855 856 856 857 858 859 861 861 862 862 862 863 864 863 863 864 865 865 865 864 864 863 863 862 862 862 861 860 859 857 856 854 853 851 850 848 847 845 844
765 767 768 769 770 772 773 776 778 780 783 786 790 794 797 798 800 803 805 808 810 813 815 818 820 822 824 826 828 830 831 832 835 837 839 842 843 844 846 847 848 849 850 851 852 852 853 854 855 856 857 858 860 861 861 862 862 862 863 863 863 863 864 865 864 863 863 863 862 861 861 861 861 860 859 858 857 855 854 852 851 849 848 846 845
763 765 767 769 770 772 774 777 780 782 783 785 789 792 795 797 799 802 805 807 810 812 814 817 819 821 823 825 828 829 830 832 834 836 838 840 842 844 845 846 847 848 849 849 850 851 852 853 853 854 856 857 858 859 860 861 861 862 862 862 862 863 864 864 864 863 862 861 861 860 860 860 860 860 859 858 857 856 854 853 851 850 848 847 846
762 764 766 768 769 771 774 777 780 782 783 785 788 791 794 796 799 801 804 807 810 812 814 816 818 820 822 824 826 827 828 830 833 835 837 839 841 843 844 845 846 847 848 848 849 850 851 852 852 853 855 856 857 858 859 860 861 861 861 862 862 863 863 863 863 862 861 860 860 860 860 859 859 859 859 858 857 856 854 853 852 850 849 847 846
761 762 764 766 768 770 773 776 779 781 782 785 788 790 792 795 799 802 805 807 809 811 813 814 816 818 821 823 825 826 826 828 831 834 835 837 840 842 844 845 846 847 847 848 849 849 850 851 851 853 854 856 856 857 858 858 859 860 860 861 862 862 862 862 861 860 860 859 859 858 858 858 858 858 858 858 857 855 854 853 851 850 849 847 846
761 762 764 766 768 770 773 776 779 781 783 785 787 789 792 794 798 802 805 807 809 810 812 814 816 818 820 823 825 826 827 828 830 832 834 836 839 841 843 844 845 846 847 848 848 848 849 850 851 853 854 855 855 856 856 857 858 859 859 860 860 861 861 860 859 859 858 858 857 857 857 857 857 857 857 857 856 854 853 852 851 849 848 846 845
761 763 765 767 769 771 774 777 779 781 784 786 788 790 792 795 797 801 804 806 808 811 813 815 817 819 820 822 824 826 827 829 830 831 833 835 837 840 842 843 845 846 846 846 847 847 848 850 851 852 853 854 855 855 855 856 856 857 858 859 859 859 859 858 858 857 857 856 856 856 856 856 856 856 856 855 854 853 853 851 850 848 847 846 844
761 763 765 767 770 772 774 776 779 781 784 786 789 792 793 795 797 800 803 806 808 811 813 815 816 818 820 822 824 824 826 828 829 830 832 834 837 839 841 843 844 845 846 846 847 848 849 850 851 852 853 853 854 854 854 854 855 856 856 857 857 857 857 857 856 856 855 855 855 855 855 856 855 855 854 854 853 852 852 851 849 848 847 845 843
761 763 765 767 770 772 774 776 779 782 784 787 789 791 792 794 797 799 802 804 806 809 811 813 814 816 818 821 823 825 826 827 827 828 830 833 835 838 840 841 843 844 845 846 846 848 849 850 851 852 852 852 853 853 853 853 853 854 854 855 855 855 855 855 855 855 855 854 854 854 855 855 854 854 853 852 851 851 850 850 849 847 846 845 842
761 764 765 767 769 771 774 776 779 782 784 787 790 792 792 794 796 799 801 803 805 806 808 810 812 814 816 818 821 823 825 825 825 827 829 831 834 836 838 840 841 842 843 844 845 847 848 849 850 851 851 851 851 850 851 851 851 852 852 853 853 854 854 854 854 854 853 853 853 853 853 853 853 852 852 851 850 850 849 848 847 846 845 844 841
762 764 766 767 769 771 773 776 779 781 784 786 789 791 793 794 796 798 800 802 804 806 808 810 811 813 816 818 819 822 823 824 825 826 828 830 833 835 836 838 840 841 842 843 845 846 847 848 848 848 848 849 849 848 848 848 849 850 850 851 852 852 852 852 852 852 852 852 852 852 852 852 852 851 850 849 849 848 847 847 846 845 844 842 840
763 764 766 768 769 771 773 776 778 781 784 785 788 790 793 795 797 798 800 802 804 806 808 810 811 813 815 818 820 821 823 823 824 825 827 829 831 834 836 838 839 840 841 842 844 845 845 846 846 846 846 847 847 847 847 847 847 848 848 849 850 850 851 851 851 851 851 851 851 851 851 851 850 849 849 848 848 847 846 845 844 843 842 841 839
762 764 766 768 769 772 774 776 778 781 784 786 788 790 792 794 796 798 800 802 803 805 807 809 811 812 814 816 819 820 821 822 823 824 826 828 830 833 835 836 837 839 840 842 843 844 844 844 844 844 845 845 845 846 846 846 846 846 847 847 848 849 849 849 849 850 850 850 850 850 849 849 849 848 848 847 847 846 845 843 843 842 841 840 838
762 764 766 768 770 773 775 776 779 781 783 785 787 789 790 793 795 797 799 801 803 805 806 808 810 811 813 815 817 818 819 820 821 823 825 827 829 831 833 835 836 838 840 841 842 842 842 843 843 843 843 843 843 844 845 845 845 845 845 846 846 847 847 848 848 848 849 849 849 848 848 848 848 847 847 846 845 844 843 843 842 840 839 838 837
762 764 765 767 770 772 774 776 779 780 782 784 786 787 789 791 792 795 797 799 802 804 805 806 807 809 811 813 814 816 817 818 820 822 824 826 828 830 832 834 835 837 838 840 841 841 841 841 841 841 841 841 842 842 843 843 843 843 843 844 844 845 846 846 846 847 847 847 847 847 847 847 846 846 845 845 844 843 842 841 840 839 838 837 836
762 764 765 767 769 771 773 776 778 779 781 783 784 786 788 789 791 793 794 796 799 801 802 804 805 807 809 811 812 814 816 817 819 820 822 824 826 828 830 832 833 835 836 838 838 839 839 839 839 840 840 840 840 841 841 841 842 842 842 842 843 843 844 844 845 845 845 845 845 845 845 845 845 845 844 843 843 842 841 840 839 838 837 837 836
762 764 766 767 769 771 773 775 777 778 780 781 783 785 787 788 790 791 793 795 797 799 801 803 804 806 808 809 810 812 814 815 817 819 820 822 824 825 827 829 831 833 834 835 836 836 837 837 838 839 839 839 839 839 839 840 840 840 841 841 841 842 842 843 843 843 844 844 844 844 844 844 844 843 843 842 841 841 840 839 838 837 837 836 835
763 764 766 768 770 772 773 775 776 777 779 780 782 784 785 787 788 789 791 794 796 798 801 802 803 804 807 808 809 811 812 814 816 818 819 821 822 823 825 827 829 830 831 832 833 834 835 836 837 837 837 837 838 838 838 839 839 839 840 840 840 841 841 842 842 842 842 843 842 842 843 842 842 842 842 841 840 839 838 838 837 836 835 835 834
763 764 766 768 769 771 773 774 775 776 778 779 781 783 784 785 787 788 790 793 795 798 799 800 801 803 805 806 808 809 810 813 815 818 819 820 821 823 825 826 827 828 829 829 831 832 833 834 835 836 836 836 837 837 837 838 838 838 839 839 839 840 840 841 841 841 841 841 841 841 841 841 840 840 840 839 838 837 837 836 836 835 834 833 832
763 764 765 767 769 770 772 773 774 776 777 778 780 781 783 784 786 787 789 792 794 796 798 799 800 802 803 804 806 808 809 811 813 816 818 819 820 822 824 826 826 826 827 827 828 830 831 833 834 834 835 835 836 836 837 837 837 838 838 838 838 839 839 839 840 840 840 839 839 839 839 838 838 838 838 837 836 836 835 835 834 833 832 831 830
762 763 765 766 768 770 771 772 773 775 776 777 779 780 781 783 785 786 788 790 792 794 796 798 799 801 802 803 804 806 808 809 810 812 815 817 820 822 823 824 825 826 826 826 827 828 830 831 832 833 834 834 835 836 836 837 837 837 837 837 837 837 838 838 838 838 837 837 837 837 837 836 836 836 836 835 835 834 833 833 832 831 831 830 829
762 763 764 766 768 770 770 772 773 774 775 776 778 779 780 782 783 785 787 789 791 793 794 796 798 800 801 801 802 804 806 808 809 811 812 814 818 821 822 823 824 825 826 826 827 828 829 830 831 832 833 833 834 835 836 836 836 836 836 836 836 836 836 836 836 836 835 835 835 835 835 835 834 834 834 833 833 832 832 831 830 829 828 827 827
761 762 764 765 767 769 770 771 772 773 774 775 777 778 779 780 782 784 785 787 789 791 793 795 797 799 799 800 802 804 806 807 808 809 810 812 816 819 821 822 823 824 824 825 826 827 828 829 830 831 832 833 833 834 835 835 835 835 835 835 834 834 834 834 834 833 833 833 833 833 832 833 832 832 832 831 831 830 829 828 828 827 826 825 824
761 762 763 765 766 768 769 770 771 772 774 775 776 777 778 780 781 783 784 786 788 790 792 794 795 797 798 799 801 803 805 806 807 808 809 811 813 816 818 820 821 822 823 824 825 826 828 829 829 830 830 831 832 833 833 833 833 833 833 833 833 833 832 832 832 831 831 831 830 830 829 829 829 829 829 828 828 828 827 826 825 824 823 822 822
760 761 763 764 765 767 768 769 770 771 773 774 776 777 778 780 781 783 784 786 787 789 791 792 794 795 797 798 799 801 803 805 806 807 808 809 811 813 815 817 818 820 821 823 824 825 827 828 828 828 828 829 831 832 832 832 832 832 832 831 831 830 830 829 829 829 828 828 828 827 827 826 826 825 825 825 825 824 823 822 822 821 819 819 818
760 760 762 763 764 766 767 768 769 770 772 774 775 776 778 780 781 783 784 786 788 789 791 792 793 795 796 796 798 799 801 803 805 806 807 808 810 811 813 815 816 818 819 821 823 824 825 826 826 826 827 828 829 830 830 830 830 830 829 829 829 828 828 827 827 826 826 825 825 825 824 824 823 822 822 822 821 821 820 819 818 816 815 814 813
760 760 761 763 764 765 766 767 768 769 771 772 774 775 777 778 780 782 784 786 788 790 791 792 793 795 795 796 797 799 800 802 804 805 806 807 809 810 812 813 815 816 818 819 821 822 823 823 824 824 825 826 827 828 828 829 829 828 827 827 826 826 825 825 824 823 823 822 822 821 821 820 820 819 818 818 817 816 815 814 813 812 811 810 808
759 760 762 763 764 765 765 766 768 769 770 772 773 774 776 777 778 780 783 785 787 789 790 792 793 794 794 795 797 798 799 801 803 804 805 806 808 809 810 812 813 815 816 818 819 820 821 822 822 823 823 824 824 825 826 826 826 826 825 825 824 823 823 822 821 820 820 819 819 818 817 817 816 816 815 814 813 812 811 810 809 808 807 806 805
759 761 762 762 764 765 765 766 768 769 771 773 774 775 776 777 778 780 782 784 787 788 790 791 792 793 793 795 796 797 799 800 802 803 805 806 807 808 810 811 812 813 815 816 818 819 820 821 822 822 822 823 823 823 824 824 824 824 823 822 821 820 819 819 818 817 817 816 815 815 814 813 813 812 811 811 810 809 809 808 807 805 804 803 802
760 761 762 763 764 765 766 767 769 770 771 773 775 776 777 778 779 780 782 784 786 788 789 791 792 793 794 795 796 797 799 800 802 803 805 806 807 808 809 810 811 813 814 816 817 819 819 820 820 821 821 821 821 821 821 821 821 821 820 819 818 817 816 816 815 814 813 812 812 812 811 810 810 809 808 808 807 806 806 805 804 803 802 801 800
760 761 763 764 765 766 767 769 770 771 772 774 775 777 778 780 780 781 783 785 787 788 789 791 792 793 795 796 797 798 800 801 802 804 805 806 807 808 809 810 811 813 814 816 817 817 818 818 818 818 818 818 818 819 818 818 818 817 817 816 815 815 814 813 812 811 811 810 809 809 809 808 808 807 806 806 805 804 804 803 802 801 800 798 797
761 763 764 764 766 767 768 770 771 773 774 775 776 778 780 781 782 783 785 786 788 789 790 791 793 794 796 797 798 800 800 802 803 804 805 806 808 809 810 811 812 813 814 815 815 816 816 816 816 816 816 816 817 817 817 816 816 816 815 814 814 813 812 812 811 810 810 809 808 808 807 807 806 805 805 804 804 803 802 801 800 799 798 796 795
Wind_Speed
24 23 23 23 24 23 21 21 19 18 21 21 20 21 19 18 17 15 15 15 16 16 15 15 15 14 13 12 11 11 10 10 10 10 10 10 10 10 10 11 12 11 11 11 10 10 10 11 11 10 9 9 9 9 10 11 11 11 10 10 10 10 9 8 8 8 9 9 9 11 13 13 13 15 15 14 14 15 14 15 15 15 16 13 14
24 22 22 23 23 22 21 22 21 20 21 21 22 22 20 18 18 16 15 15 16 16 15 15 15 14 14 12 12 11 11 11 10 10 11 11 10 10 11 12 12 11 11 11 10 10 10 11 11 11 10 10 10 10 10 11 11 12 11 10 10 11 10 8 7 7 9 10 10 11 12 13 14 15 15 14 14 14 14 15 15 14 16 15 13
23 21 22 21 21 22 22 21 21 21 22 22 23 22 20 20 19 17 16 16 16 16 15 16 15 15 14 13 12 11 11 11 10 11 11 11 11 11 11 12 12 11 11 11 11 10 10 10 10 9 9 9 10 10 10 10 11 11 11 11 10 10 10 9 8 7 7 9 10 11 12 13 14 15 15 13 13 13 13 14 15 14 15 16 14
22 22 22 20 21 23 22 20 20 22 23 23 22 22 22 21 20 18 18 16 16 16 15 15 16 15 14 13 13 11 11 11 11 11 11 11 11 12 12 12 11 11 11 11 11 10 10 10 9 9 9 9 9 10 10 9 10 10 9 10 10 9 10 9 9 8 7 8 10 11 11 12 13 15 15 13 12 12 11 12 14 14 16 17 15
23 23 22 22 23 24 22 20 23 25 24 23 23 23 23 21 19 19 19 17 17 17 16 16 15 15 14 14 13 12 12 12 12 12 11 11 12 12 12 12 11 11 11 11 10 9 9 10 9 9 8 9 9 9 10 10 9 9 9 9 9 9 9 9 8 8 8 8 9 11 12 12 12 14 15 14 13 13 12 11 13 13 15 18 17
24 23 23 22 23 23 22 21 24 26 24 23 23 24 24 22 20 19 19 18 18 17 17 16 15 15 14 14 13 12 12 12 12 12 12 12 12 12 13 12 12 12 11 11 10 9 9 10 9 9 9 9 9 9 9 9 9 9 9 8 8 8 8 8 8 8 8 9 9 10 12 12 12 13 15 15 14 14 14 12 13 13 14 18 19
25 24 23 20 18 20 20 20 23 24 22 22 23 24 25 24 21 20 20 20 19 18 17 16 15 15 15 14 14 13 12 12 12 12 13 13 13 13 13 13 12 12 11 11 10 10 10 10 9 9 9 8 8 8 8 8 8 8 8 7 7 7 7 7 7 7 8 9 10 11 11 12 12 13 14 13 12 14 15 14 15 15 14 16 20
24 25 22 19 18 20 20 21 23 22 20 22 23 24 26 24 21 21 21 20 19 18 17 16 15 15 14 14 13 13 13 12 12 13 13 13 13 13 13 13 13 12 12 11 10 10 10 10 9 9 9 9 8 7 6 6 6 7 7 7 7 7 6 6 7 8 8 9 10 11 11 12 13 13 14 15 14 15 17 15 15 16 15 14 18
21 22 20 18 18 20 21 22 23 21 21 23 23 24 26 25 24 23 21 19 19 18 17 16 16 15 14 14 14 13 13 12 12 13 14 14 14 14 13 13 13 13 12 11 10 10 10 10 10 10 11 11 11 10 8 6 6 6 6 6 7 7 6 6 7 8 9 9 10 11 12 13 14 15 15 16 16 16 16 15 14 16 16 14 16
19 19 19 18 17 20 22 23 23 23 23 23 24 28 30 28 26 25 23 21 19 18 17 17 16 15 15 14 14 13 12 12 14 15 15 15 14 14 13 13 13 13 12 11 11 10 10 10 10 10 10 11 12 12 11 10 10 10 9 7 6 6 6 7 8 8 9 10 10 11 12 13 15 15 15 15 15 15 15 15 14 15 16 14 15
18 19 21 19 18 21 23 22 23 24 24 25 28 31 31 29 27 25 24 24 21 19 18 18 16 16 15 15 15 14 12 13 15 17 17 16 14 13 13 13 12 12 12 11 11 11 11 11 11 9 9 9 10 10 10 10 11 12 12 12 9 7 6 7 8 9 9 10 10 10 10 12 13 14 14 14 15 15 14 14 14 14 15 15 14
18 19 21 22 21 22 21 21 22 23 24 27 30 32 31 29 28 26 25 26 24 20 19 19 18 17 16 16 15 14 13 15 16 16 18 18 16 13 13 13 12 12 11 11 11 11 11 11 11 10 9 8 9 9 8 9 10 10 12 13 14 13 10 8 8 8 9 10 10 10 10 10 11 13 14 15 15 14 13 13 13 13 13 14 14
19 19 21 23 23 22 20 21 22 21 25 30 32 32 30 27 26 26 26 27 26 22 19 19 19 18 17 16 16 14 15 17 17 15 17 19 18 14 12 12 12 11 11 11 11 11 11 11 10 10 8 8 9 8 8 8 8 9 10 11 12 14 13 12 11 10 10 9 10 10 10 9 10 12 14 15 14 13 13 14 14 13 12 12 13
19 19 20 22 22 21 22 26 26 25 28 32 32 30 27 24 23 24 25 28 27 22 19 19 19 18 17 17 15 14 17 19 18 16 16 19 19 15 11 12 12 10 11 11 10 11 11 10 10 10 10 9 8 8 8 7 6 5 5 6 6 8 9 10 10 10 9 9 9 9 9 8 9 11 13 14 13 12 13 14 14 14 11 9 9
20 20 21 22 21 21 24 27 29 31 32 32 32 29 24 21 20 21 24 28 27 22 19 19 18 17 17 17 15 14 18 20 19 17 16 18 19 14 10 11 12 10 11 11 10 10 10 10 10 10 10 9 8 8 8 6 5 4 3 4 4 5 5 6 7 7 7 7 8 7 7 7 7 9 12 14 13 11 11 11 12 12 10 7 8
21 21 21 20 20 24 28 27 28 33 34 32 32 29 23 21 22 23 25 26 24 20 18 17 17 17 16 17 16 15 19 21 20 18 16 17 19 15 11 12 12 11 11 11 10 10 10 9 10 10 10 9 8 9 9 7 5 4 4 4 4 4 4 5 6 8 8 8 8 7 7 7 7 8 12 14 13 11 9 9 11 11 11 9 9
20 20 21 20 21 28 33 31 30 33 35 35 32 27 22 22 24 25 24 21 19 18 18 17 17 17 17 18 16 16 21 23 21 19 17 18 19 15 11 12 12 11 12 12 11 10 10 10 9 9 10 10 9 9 9 7 5 4 4 4 3 4 3 3 4 7 8 8 8 8 8 7 7 8 11 13 14 13 10 10 12 12 12 12 11
19 20 21 21 23 30 35 35 34 34 36 36 31 24 21 23 25 24 23 21 20 20 19 17 16 16 17 18 16 17 22 24 22 20 18 18 18 14 12 13 12 12 12 12 11 10 11 12 10 8 9 10 10 10 9 7 5 4 3 4 3 3 3 2 2 2 5 6 7 8 8 8 7 7 9 12 15 14 11 11 13 12 12 12 12
21 22 22 22 27 32 34 36 38 37 37 35 29 23 24 26 27 25 23 22 21 21 20 17 15 15 15 17 17 18 22 24 23 20 19 19 18 14 12 13 12 12 12 12 11 10 11 13 13 10 10 10 11 12 10 7 5 3 3 4 3 3 3 2 2 2 1 2 4 5 5 6 6 4 6 10 13 12 10 11 12 11 11 12 12
18 20 21 25 31 34 33 38 42 40 37 34 28 24 26 27 28 27 25 22 22 23 21 16 15 14 14 17 18 17 20 24 24 21 19 19 19 15 12 12 13 12 12 12 11 10 10 12 14 14 12 11 11 12 11 8 5 3 3 3 2 3 3 2 1 1 1 0 1 2 2 3 3 2 3 5 8 8 8 9 10 10 10 11 11
16 18 19 24 29 30 33 39 41 38 38 35 29 27 27 27 28 29 27 25 24 23 20 16 16 16 15 18 17 15 19 24 23 21 20 20 20 17 12 11 12 12 12 12 11 11 10 10 13 15 14 12 12 12 12 10 7 4 4 3 2 3 3 2 1 2 2 2 2 2 2 2 2 2 2 3 5 6 7 8 8 8 9 9 9
19 19 19 22 24 25 30 36 34 32 34 34 30 29 27 27 28 30 29 28 26 24 21 18 16 15 14 16 16 14 19 22 21 21 21 19 22 20 12 10 12 12 11 11 10 10 10 9 11 14 14 13 13 12 12 12 9 6 6 5 3 3 3 3 3 4 3 3 2 1 2 2 2 2 3 3 4 6 6 6 7 7 6 6 7
21 19 20 22 21 22 29 32 28 27 30 31 30 29 27 26 27 29 28 27 25 24 22 20 18 16 15 15 16 17 20 20 19 21 21 20 23 22 13 10 14 13 10 11 10 9 9 9 11 14 15 13 13 12 12 12 11 9 8 6 5 4 4 5 4 4 3 2 2 2 2 2 2 3 3 4 4 5 5 5 6 6 5 4 5
19 19 20 21 20 22 28 30 28 26 27 29 29 28 27 27 28 27 25 24 23 22 22 22 21 21 19 17 16 17 20 19 19 21 22 21 22 22 16 13 15 13 9 8 9 8 9 9 11 13 14 13 12 12 12 12 12 11 9 7 6 6 6 6 5 4 3 3 3 3 2 2 2 3 3 4 5 5 6 6 6 6 6 5 5
16 16 17 18 19 22 26 28 28 25 25 27 29 28 28 28 27 25 22 21 21 21 21 21 21 22 21 17 14 14 17 18 20 22 22 21 20 21 19 16 16 13 8 7 8 10 10 10 10 12 13 12 12 11 11 11 11 10 9 8 8 8 8 7 6 5 5 4 3 3 3 2 2 2 3 5 6 6 6 7 7 6 7 7 7
15 15 15 16 18 22 25 26 26 24 24 25 26 26 27 27 26 25 23 21 21 19 18 18 17 16 17 15 13 14 15 15 19 22 23 21 20 21 20 17 17 15 10 7 9 11 10 10 10 10 11 11 10 10 10 11 11 10 10 10 10 9 8 7 6 6 5 4 4 4 3 3 3 3 4 5 6 5 5 7 7 7 7 8 7
15 14 15 15 17 20 23 25 24 22 22 23 21 21 25 26 26 25 23 21 19 15 14 15 15 13 13 12 12 15 16 15 17 21 23 22 20 21 20 17 17 17 13 9 10 11 10 10 10 9 9 9 10 11 11 11 11 11 11 11 11 9 7 7 7 6 5 4 4 4 3 3 4 4 4 5 5 4 5 6 7 7 7 8 8
14 15 15 15 16 20 24 25 24 21 20 20 20 21 25 26 25 25 24 23 22 19 16 17 17 16 16 14 14 14 15 16 17 20 23 22 19 19 19 17 17 17 14 11 11 11 11 11 10 9 8 8 9 11 11 11 11 11 11 11 10 8 8 9 8 6 5 5 4 4 4 4 5 5 5 5 4 4 4 5 7 8 8 9 9
14 15 15 15 18 23 24 22 20 20 18 17 18 21 24 24 23 24 26 28 28 26 24 23 23 22 21 20 19 18 17 18 19 20 22 23 20 18 18 18 17 16 15 14 13 12 12 11 11 10 10 10 10 11 11 11 11 11 10 10 9 8 8 9 9 7 6 5 4 4 5 5 5 5 5 5 5 4 4 5 6 7 8 8 9
14 15 14 14 19 25 24 19 18 18 16 15 16 19 21 23 22 22 24 27 29 28 25 22 22 23 23 22 21 21 18 18 20 22 23 24 23 20 18 18 17 16 16 16 14 12 11 12 12 11 11 11 11 11 10 10 10 10 10 10 9 9 8 8 8 7 6 5 5 5 5 5 6 6 5 5 5 5 5 5 6 7 7 8 9
15 14 13 14 21 25 22 18 17 16 14 14 15 15 16 18 20 21 23 26 27 25 22 19 18 20 20 18 18 19 18 17 19 24 25 26 25 22 20 20 19 18 18 17 14 11 11 12 12 12 11 11 11 10 10 10 10 9 9 9 9 9 9 8 7 6 6 6 6 6 6 6 7 6 6 6 6 6 7 6 6 7 7 8 8
14 13 12 16 22 23 20 17 16 14 14 15 15 14 14 14 16 19 21 22 23 23 22 20 18 18 18 17 15 16 19 19 19 22 25 26 26 24 23 22 22 20 18 17 14 12 12 12 12 11 11 11 11 11 10 10 9 9 9 9 9 9 9 8 8 7 7 7 7 7 7 7 7 7 7 7 7 8 7 7 7 8 8 8 8
13 13 13 17 22 22 20 18 17 15 16 16 15 15 16 15 14 15 16 18 21 22 22 22 19 17 18 19 17 16 18 21 21 21 23 25 26 26 24 23 22 21 20 18 15 13 12 12 12 12 12 12 11 11 11 10 10 9 9 9 9 9 8 8 7 7 8 8 8 7 8 7 7 8 8 8 8 8 8 8 8 8 8 8 8
11 11 12 16 20 20 19 17 16 15 17 17 15 15 16 15 14 15 15 16 18 20 22 23 22 19 18 20 20 18 19 21 22 22 22 24 26 26 26 24 22 22 21 18 15 14 13 12 12 12 11 11 11 11 11 11 10 10 9 9 8 8 8 7 7 8 8 9 9 9 9 8 8 8 8 8 8 8 8 9 9 9 9 9 9
8 10 13 16 18 18 17 16 15 15 16 16 15 14 14 15 14 14 16 18 18 17 18 20 22 21 19 18 18 19 20 21 22 22 22 22 25 28 27 24 22 21 20 19 17 15 14 13 12 11 11 10 11 11 11 11 11 10 9 9 9 8 8 8 8 8 8 8 9 9 8 9 9 9 9 9 9 9 10 10 10 10 10 9 9
9 10 13 16 16 15 15 14 14 15 16 15 15 14 14 14 13 13 15 17 16 13 12 13 16 19 19 17 15 15 17 19 20 20 20 20 24 29 28 22 18 18 19 18 17 16 14 13 12 12 12 12 11 11 11 11 11 10 9 9 8 8 8 8 7 7 7 8 8 9 9 9 10 9 10 10 10 10 10 10 10 10 10 10 10
10 9 12 14 14 13 13 14 14 15 15 14 13 12 12 11 12 13 16 17 15 11 9 10 11 13 14 16 15 14 15 15 16 17 17 16 20 26 26 21 18 18 17 18 18 16 14 14 13 12 12 11 11 10 10 10 10 9 9 8 8 8 7 7 6 7 7 7 8 8 9 10 10 10 10 11 11 11 11 11 11 11 11 11 11
11 10 11 14 14 14 13 13 13 14 14 12 11 11 11 10 11 13 16 16 14 11 10 10 11 12 12 14 15 15 15 14 13 13 13 14 18 22 22 19 18 19 17 16 16 15 13 13 13 13 12 11 10 10 10 9 9 9 8 8 8 8 8 8 8 8 9 9 9 10 10 10 11 11 11 11 11 11 11 11 11 11 12 12 12
12 11 13 16 15 14 13 13 12 13 13 12 11 12 14 14 15 15 15 15 15 13 10 10 10 11 12 14 16 16 15 15 14 13 14 15 18 20 19 16 16 17 15 14 13 13 12 12 12 12 12 11 11 10 10 9 9 9 9 8 8 8 8 9 9 9 10 10 10 10 10 10 10 10 11 11 12 12 12 12 12 12 12 12 12
10 11 15 17 15 13 13 13 12 11 13 13 11 12 14 16 16 17 18 19 18 16 13 11 10 10 12 15 18 19 17 15 15 16 16 16 16 17 17 16 15 15 14 12 11 10 10 11 11 11 11 11 10 10 10 10 9 9 9 9 9 9 9 9 10 10 10 10 10 10 11 11 11 11 12 12 12 12 13 13 13 13 13 13 13
9 10 14 17 15 12 12 12 11 11 12 12 11 11 12 14 15 17 19 21 21 19 17 13 9 9 12 15 19 19 18 16 16 16 16 17 17 16 16 16 16 15 14 12 11 10 10 9 9 10 10 10 10 10 10 10 10 9 9 10 10 11 11 10 11 11 11 11 11 12 12 12 12 13 13 13 13 14 14 14 14 14 14 14 14
10 10 13 16 15 12 10 10 10 10 11 11 11 11 13 16 17 17 19 20 20 20 19 14 9 9 11 14 16 17 16 15 17 18 17 16 17 17 16 16 15 13 12 11 10 10 10 9 9 10 10 10 10 11 11 11 10 10 11 11 11 11 11 11 11 11 12 12 13 14 14 15 15 15 15 16 16 16 15 15 15 14 14 15 15
9 10 11 14 14 11 9 9 9 9 9 10 10 10 11 14 16 17 18 19 19 20 19 15 12 11 12 11 12 15 15 13 15 17 17 15 15 17 18 19 18 16 15 14 13 12 12 12 12 12 12 11 11 12 13 12 11 10 11 11 11 12 13 13 13 13 13 14 14 15 16 18 18 17 16 16 16 16 16 16 16 16 16 16 16
8 9 11 12 13 12 11 10 10 11 11 11 11 10 10 10 11 14 17 18 18 18 17 15 13 13 12 10 11 15 17 16 15 16 16 15 15 16 19 21 21 21 20 19 18 17 17 17 17 17 16 14 13 12 12 11 11 11 11 11 12 13 13 13 14 14 14 15 16 15 15 16 17 16 15 15 16 17 17 17 17 17 18 18 18
6 7 8 10 10 10 11 11 12 14 14 14 13 12 10 8 8 10 12 13 14 14 13 12 12 12 11 10 10 12 16 18 17 16 16 15 16 17 18 19 20 20 20 19 18 17 17 16 16 15 15 14 14 13 14 15 16 16 14 13 12 13 14 13 14 15 16 16 16 15 14 15 15 15 15 15 16 16 17 17 17 18 19 19 20
4 5 6 7 7 8 10 12 14 14 14 14 14 14 12 9 8 9 10 11 12 11 9 9 10 10 8 7 7 9 12 14 15 16 16 16 16 16 16 15 15 15 13 12 10 9 10 11 11 11 11 12 13 15 16 16 15 14 14 14 14 16 17 17 17 18 19 19 19 19 18 17 16 17 18 19 20 20 20 20 20 20 20 20 21
3 4 4 5 5 7 9 12 13 12 13 14 15 15 14 11 10 10 11 12 11 10 9 8 8 7 6 5 5 6 7 8 9 10 11 11 11 10 9 9 8 7 5 5 5 5 6 7 8 8 10 11 13 15 16 16 15 15 16 16 16 17 18 19 19 20 20 20 20 21 20 19 18 17 18 19 19 20 20 20 20 21 22 21 21
3 4 4 5 7 8 10 11 12 11 10 9 9 11 12 12 11 10 11 10 9 9 8 7 6 6 5 5 5 6 6 7 6 5 5 5 6 6 5 5 5 5 5 4 3 4 5 7 8 9 12 13 15 16 17 17 16 15 14 14 15 18 20 21 22 22 22 21 20 20 21 21 20 20 19 19 19 19 18 18 18 18 19 18 18
4 4 3 3 4 7 9 10 11 10 8 7 7 9 11 11 11 10 10 9 8 8 7 6 6 6 7 8 8 8 8 7 6 5 5 5 6 7 7 7 6 5 3 2 3 5 8 10 11 12 13 13 13 12 11 12 12 12 13 15 18 20 21 21 21 21 21 20 20 19 19 18 19 19 19 19 18 18 17 16 16 17 17 17 17
3 3 3 3 3 4 5 7 8 7 7 7 8 9 10 11 10 10 10 9 9 8 8 7 8 8 9 9 9 8 8 8 8 7 7 7 7 8 7 6 5 5 5 6 7 9 9 9 9 10 10 9 9 9 10 11 13 13 14 15 16 16 16 16 16 16 15 14 14 13 13 12 13 13 13 13 13 13 13 13 13 14 14 15 16
4 3 3 4 4 4 5 6 6 6 6 7 7 9 10 11 11 12 11 10 9 9 10 11 11 11 11 12 12 12 13 13 12 11 10 9 8 7 6 6 6 8 9 8 8 7 6 6 8 9 9 8 8 8 8 8 8 8 8 9 10 10 11 11 10 10 10 9 8 8 7 7 8 9 9 9 9 10 11 12 12 13 13 13 14
Wind_Direction
172 174 178 178 178 183 186 183 180 180 179 177 174 172 170 164 159 154 149 150 154 154 153 151 147 144 140 136 131 127 126 126 127 126 121 117 114 112 112 111 109 109 107 103 99 94 91 87 81 75 72 72 69 64 58 53 52 50 45 46 44 34 33 45 53 51 37 22 18 19 12 11 17 15 13 13 10 10 13 11 11 10 11 10 358
170 170 173 176 179 182 182 179 178 176 174 174 174 172 169 165 160 153 151 153 156 157 156 152 148 145 142 137 131 129 128 129 129 128 125 121 119 118 118 118 116 115 113 108 103 99 94 91 86 80 76 73 71 66 62 58 56 54 49 47 48 40 34 37 46 49 39 28 23 23 19 18 20 16 11 8 5 6 11 10 11 10 8 11 7
169 169 173 178 182 183 178 176 176 173 169 172 175 172 168 165 161 155 153 156 159 160 157 153 149 146 143 138 135 132 130 132 131 130 129 127 125 124 124 123 122 120 117 112 109 106 100 96 90 85 79 77 73 66 62 61 58 57 54 50 48 44 39 37 39 44 42 35 26 21 20 20 20 15 7 5 3 4 11 11 10 13 9 9 9
172 172 175 181 183 182 177 174 174 171 169 172 175 174 171 168 162 156 153 156 161 162 158 153 150 148 145 141 139 137 134 134 134 132 132 132 131 130 128 128 126 124 119 115 113 110 105 100 94 90 85 78 75 68 62 60 58 57 56 54 51 46 43 40 37 38 38 37 33 25 21 19 19 14 5 4 7 5 9 12 11 15 14 11 9
176 176 177 182 182 180 176 172 173 172 170 172 175 176 173 167 161 157 154 157 163 162 159 156 153 151 149 147 144 140 138 137 136 136 137 137 136 134 132 131 128 125 120 117 116 112 107 103 95 92 88 80 76 70 63 60 58 57 56 55 53 47 44 42 37 38 38 37 35 30 26 21 17 14 6 4 8 8 9 13 11 13 15 14 11
176 174 174 179 180 178 174 170 172 172 171 171 174 175 172 167 163 158 156 159 162 163 160 158 157 155 152 150 147 143 141 138 139 142 143 142 140 137 135 133 130 127 123 119 118 114 108 103 96 91 87 82 79 74 68 63 58 56 53 51 50 46 44 42 38 39 41 39 35 31 28 22 15 12 7 4 7 8 6 9 12 13 14 14 12
175 173 173 174 173 173 172 171 172 171 170 172 173 174 174 171 164 159 160 162 162 163 163 160 158 157 154 152 150 146 143 141 143 148 148 147 145 141 139 137 134 130 127 122 119 116 110 104 99 92 86 83 80 75 70 64 59 56 49 43 41 39 41 41 38 41 42 41 40 34 28 23 17 12 7 5 12 14 8 7 9 10 14 15 13
175 175 173 168 166 170 173 174 173 169 170 174 173 173 175 172 166 164 167 168 165 165 165 161 159 158 156 154 152 149 147 146 150 154 154 153 150 147 145 142 139 135 131 126 122 118 114 108 101 92 85 83 81 79 73 64 60 55 48 44 40 37 38 38 39 44 44 42 41 35 29 24 19 13 9 10 15 15 9 7 8 8 11 17 15
174 175 173 168 168 172 175 175 173 170 172 174 172 174 175 175 174 173 172 170 168 168 168 164 161 160 159 157 154 154 153 152 158 161 160 158 154 151 149 147 144 140 136 133 127 123 118 110 105 99 91 84 80 81 84 82 71 59 48 41 38 39 41 40 41 43 45 44 41 35 30 25 18 13 12 11 11 8 5 7 11 10 9 15 18
175 178 178 173 170 172 174 174 172 170 171 172 174 177 179 179 179 178 176 173 169 169 172 169 164 163 162 160 160 159 158 163 168 167 164 161 158 155 153 151 150 146 143 140 135 130 122 117 116 111 100 88 80 77 79 81 78 72 66 58 48 44 43 46 48 45 45 45 39 33 31 25 18 14 10 7 5 4 5 8 11 10 10 12 15
181 184 183 177 171 172 175 175 173 170 170 173 177 180 181 182 181 179 179 179 173 170 174 174 171 170 168 166 166 164 167 174 173 171 169 165 160 158 157 156 156 153 151 148 143 139 132 129 131 127 115 103 93 83 79 79 79 77 74 73 71 66 55 51 49 46 49 50 42 34 32 25 18 14 8 2 1 4 7 8 8 9 11 10 8
184 186 183 179 174 174 176 174 173 171 173 176 178 180 183 183 182 180 181 182 177 172 175 176 176 176 174 173 172 169 176 179 172 171 174 168 162 162 162 162 162 161 161 157 153 150 144 142 143 140 136 129 117 103 93 86 83 81 78 75 73 73 73 71 60 49 47 51 47 37 28 21 17 14 6 358 355 359 4 8 5 4 8 11 9
183 184 181 179 176 176 175 170 167 169 174 178 179 180 181 180 182 184 184 186 183 177 177 179 178 178 176 177 175 172 180 181 171 169 176 173 167 165 167 169 169 168 169 165 162 159 155 153 152 147 151 153 141 127 117 106 95 85 78 77 72 69 71 72 69 62 52 51 53 42 27 18 15 12 3 355 351 353 360 3 1 359 1 7 10
180 179 178 178 176 176 175 172 172 173 175 178 179 178 177 176 178 182 186 188 186 181 180 180 179 178 178 178 176 175 182 184 175 170 175 176 173 169 171 175 173 172 173 168 168 168 164 162 158 154 161 165 157 148 142 133 123 105 86 86 76 60 55 52 50 52 49 48 52 43 29 21 14 8 2 357 353 350 354 357 352 350 352 357 7
179 177 177 177 176 175 174 174 176 177 176 176 177 176 175 174 174 179 187 190 188 184 182 181 179 177 179 181 178 178 186 186 180 174 174 177 177 174 175 178 175 174 174 170 171 172 171 170 165 161 166 171 171 167 159 149 143 135 122 112 97 70 56 48 51 56 52 50 52 44 31 25 18 14 13 10 2 348 344 349 345 343 349 356 10
178 176 175 176 176 176 175 173 174 176 177 177 177 178 177 175 178 185 189 188 187 185 181 180 179 176 178 181 179 181 189 188 183 179 176 176 179 180 180 180 178 177 176 175 176 176 176 177 173 169 171 174 178 175 165 158 151 140 133 129 117 104 83 68 72 73 66 60 57 47 36 28 25 26 24 22 19 3 348 353 354 352 1 7 10
175 175 176 178 180 181 180 178 174 175 179 181 181 181 178 178 183 188 184 180 180 181 179 180 181 178 177 179 177 181 190 190 186 184 181 177 180 184 185 182 182 182 180 181 182 181 183 184 178 176 178 180 186 182 168 164 165 150 144 146 136 132 118 89 79 69 60 59 52 42 36 31 32 38 32 30 33 25 8 4 4 2 8 11 7
173 175 178 181 184 185 184 183 180 178 181 183 183 182 179 181 185 185 181 177 177 180 180 178 179 179 179 180 178 183 191 191 188 188 187 182 181 186 188 183 183 184 182 185 187 186 191 193 186 181 183 187 193 188 174 171 175 161 157 164 153 144 144 152 161 57 34 35 29 23 23 20 20 30 27 27 34 31 18 9 6 5 11 11 2
178 179 180 180 185 186 184 185 187 185 183 183 185 184 183 186 188 186 182 178 177 179 180 175 175 177 178 180 181 185 191 193 192 191 191 187 185 188 191 185 184 185 183 185 189 188 192 198 196 192 189 190 195 193 185 182 184 175 178 186 174 155 155 181 213 237 315 1 5 360 359 0 357 347 348 5 18 22 17 12 10 9 12 10 3
183 182 179 181 187 186 184 188 191 187 184 184 185 186 187 189 189 188 184 179 178 181 180 174 171 169 171 179 182 184 192 195 194 193 195 193 188 187 194 190 184 186 186 187 190 188 188 195 199 201 198 194 196 198 193 190 193 202 207 207 184 161 163 170 194 195 190 204 335 317 305 321 327 309 320 350 5 9 11 13 12 11 11 8 5
185 186 183 184 186 186 188 192 192 188 186 186 185 186 189 190 189 189 186 182 181 180 175 170 170 169 173 181 178 179 193 198 197 195 197 198 190 185 193 198 189 186 189 189 190 189 184 187 195 199 199 195 196 199 198 194 193 211 232 228 192 175 187 202 213 209 219 239 251 261 279 293 304 323 337 355 4 4 5 10 11 10 11 11 7
186 187 186 185 184 184 189 193 190 186 186 187 186 187 189 190 189 188 187 185 182 179 174 172 170 166 169 175 172 178 194 200 202 200 198 198 191 184 188 202 193 186 188 188 186 186 183 181 187 193 196 195 194 199 202 200 199 217 243 247 226 209 218 230 238 242 242 245 250 260 293 305 309 329 337 342 354 356 355 0 5 4 7 10 4
184 179 179 179 178 180 186 189 186 183 184 185 186 186 187 187 186 187 186 184 181 180 179 178 174 168 169 173 175 184 195 200 205 205 198 194 191 187 188 195 189 185 187 186 183 183 180 178 184 190 194 195 194 197 202 204 209 222 234 236 228 230 239 241 244 251 248 242 254 252 261 290 304 322 334 335 340 344 340 338 344 347 348 349 350
179 174 173 173 171 175 182 184 184 184 185 185 185 184 184 184 185 185 184 182 180 181 181 181 180 178 177 176 176 185 194 199 206 204 195 189 190 192 195 196 187 183 186 187 185 183 178 180 187 189 191 193 192 194 199 202 208 217 221 222 224 231 238 240 239 239 233 230 236 236 237 265 291 309 325 324 318 317 320 318 314 315 318 313 302
175 171 170 167 167 170 175 180 184 186 185 184 184 184 183 181 181 182 182 182 181 181 180 178 179 180 179 176 174 178 184 192 199 198 191 186 190 194 200 202 194 188 187 182 181 183 184 187 188 187 189 192 190 192 199 202 206 210 212 215 220 225 232 236 233 230 232 230 228 234 236 238 257 282 301 304 299 299 311 317 309 302 307 305 286
172 169 166 163 165 167 170 176 182 183 182 182 184 184 181 178 178 181 184 183 182 180 178 178 179 180 181 179 173 169 171 180 191 193 188 187 192 196 201 205 200 196 197 188 182 186 189 185 179 178 183 186 186 192 201 204 206 209 210 214 221 225 229 232 230 229 230 227 227 237 240 239 248 260 273 283 287 296 316 320 313 308 315 317 306
170 166 161 159 162 165 168 174 177 175 176 179 182 183 183 181 181 182 183 183 180 178 179 182 182 178 178 178 171 169 172 175 182 188 188 190 195 199 201 203 202 201 201 192 184 183 182 176 173 175 179 180 184 195 203 202 202 205 208 213 220 224 226 224 226 234 236 231 234 242 245 252 258 258 266 272 276 291 312 315 315 317 319 316 308
171 166 161 158 160 165 170 174 172 170 173 178 182 183 184 185 185 185 187 188 187 185 184 186 185 179 176 175 171 174 182 183 180 185 188 187 189 194 197 198 199 198 196 188 179 178 179 179 182 185 187 190 194 199 201 199 199 201 204 208 213 218 222 221 222 230 233 230 239 247 249 255 258 258 266 271 271 283 301 309 312 314 315 312 306
170 166 162 159 161 167 171 169 166 167 170 174 180 185 186 187 188 191 195 197 198 199 199 198 197 193 186 182 180 183 192 194 188 186 187 186 186 188 191 191 191 194 194 186 175 173 180 187 194 197 197 200 203 201 198 196 198 201 203 207 211 213 214 217 220 224 222 222 234 243 248 257 262 261 266 270 273 278 285 298 307 307 307 308 308
166 164 162 161 163 168 169 165 165 169 168 168 176 185 190 192 193 194 199 202 205 209 210 209 208 203 196 192 194 196 198 198 193 190 189 188 187 187 190 190 188 191 192 185 179 181 190 195 201 205 205 206 208 207 202 199 199 201 201 206 215 217 215 217 223 224 218 223 238 243 247 258 264 265 266 273 282 284 278 281 292 295 300 303 303
164 164 162 164 167 169 170 169 167 170 171 171 174 178 185 196 201 203 205 207 208 210 211 211 214 212 204 199 204 208 206 202 199 198 197 195 191 189 191 191 190 193 195 190 189 197 202 203 207 209 209 212 214 213 211 206 204 206 204 205 212 218 219 222 227 226 225 231 238 242 249 255 258 265 270 274 283 287 281 280 283 286 293 299 301
167 165 162 167 171 171 170 169 168 169 174 178 178 178 180 187 197 203 208 210 209 209 209 211 216 219 212 203 202 207 209 206 206 207 206 204 199 197 198 198 196 199 200 198 201 209 210 212 216 216 215 218 219 218 218 215 210 211 211 210 212 217 221 224 225 227 232 238 239 241 248 252 257 266 270 272 276 280 282 285 286 285 287 290 294
169 164 160 165 170 171 170 172 174 175 177 179 180 184 185 183 184 190 199 207 209 210 213 215 218 223 222 214 206 205 210 212 213 213 212 208 205 205 206 207 207 207 205 204 210 218 219 220 224 223 221 221 221 221 223 224 220 217 217 216 217 221 222 221 221 229 239 246 248 248 251 255 259 263 265 268 271 272 276 281 282 283 285 287 290
169 170 168 166 170 174 175 176 179 181 183 186 188 188 190 190 186 179 180 191 203 211 217 221 223 223 226 226 220 215 217 220 220 220 218 213 209 208 209 211 212 212 210 210 215 221 223 225 229 230 228 226 225 224 225 226 225 223 222 221 221 223 222 219 222 230 238 243 245 248 252 254 258 262 266 269 271 272 275 278 279 280 285 286 289
178 183 183 178 176 178 179 181 184 185 185 188 191 190 191 193 190 183 181 186 192 200 209 219 223 223 226 231 229 223 223 225 225 224 222 218 213 210 208 207 207 207 209 214 220 224 225 226 229 233 235 234 231 228 227 228 228 226 225 225 225 227 226 227 231 236 238 243 247 250 254 256 259 264 268 270 273 274 275 277 278 279 283 285 287
188 189 191 188 183 182 185 192 200 198 191 189 192 195 196 194 188 186 189 190 188 187 189 201 215 222 224 228 228 222 222 226 226 224 223 221 216 210 204 200 201 204 207 214 220 223 227 230 232 236 238 238 236 232 230 231 231 229 229 228 227 229 230 231 236 238 239 246 252 255 259 261 262 266 268 269 271 271 271 273 274 274 277 281 283
190 192 193 193 191 192 197 204 210 205 193 188 191 192 189 185 182 187 194 196 194 190 182 179 188 199 208 216 218 213 212 218 222 221 220 221 218 211 205 202 205 207 209 214 217 221 227 231 235 239 239 237 239 238 235 234 233 232 232 232 232 235 236 238 245 249 251 257 261 261 262 263 262 264 266 268 270 271 271 273 275 274 274 274 275
192 194 191 191 193 197 201 205 208 201 191 186 188 188 184 180 180 187 193 194 192 192 188 181 178 180 187 199 206 203 200 202 205 208 211 212 211 209 207 208 211 213 215 217 216 218 225 230 234 241 244 244 244 243 241 240 239 237 237 236 236 238 241 246 252 256 257 261 264 263 262 262 262 261 261 262 265 269 271 274 275 276 276 274 271
194 197 195 193 193 197 201 202 199 194 190 189 191 195 199 200 197 193 192 189 186 187 186 183 184 184 179 183 190 191 188 186 186 192 202 208 208 207 208 213 217 219 219 217 213 214 223 229 234 241 246 247 248 248 247 248 249 248 246 245 244 244 245 249 253 253 252 255 259 259 260 261 263 265 266 266 267 269 271 273 273 273 275 276 276
183 188 195 197 195 197 203 203 196 191 190 190 189 192 198 203 204 203 202 200 197 195 192 186 185 181 176 183 192 193 185 179 181 186 193 201 205 206 207 211 217 220 221 220 218 218 223 230 236 243 247 247 248 250 252 255 257 256 254 251 251 252 251 252 255 256 257 258 260 262 263 265 267 268 270 270 270 271 273 274 273 271 271 272 274
177 183 194 197 194 193 198 200 196 191 189 188 188 189 192 195 197 201 206 207 205 203 200 193 184 179 186 199 207 202 190 183 184 184 187 197 205 208 209 213 218 222 224 226 226 226 227 233 242 248 254 254 251 250 254 256 259 261 260 259 258 258 257 256 256 258 261 263 265 265 266 267 270 272 273 274 274 274 274 273 273 273 273 272 274
185 190 192 192 192 192 193 193 191 187 186 187 189 193 200 203 202 203 207 208 207 206 203 196 185 187 199 209 212 203 193 191 193 192 193 200 206 210 214 216 216 218 221 222 224 227 231 237 244 249 256 259 256 252 251 252 255 258 261 261 261 260 260 261 261 261 262 263 264 265 265 267 270 273 273 274 275 274 273 273 272 273 275 275 275
184 189 191 191 193 194 194 192 188 186 187 189 188 189 196 203 206 208 210 209 208 207 204 197 194 200 205 209 207 201 197 195 195 194 195 197 200 208 217 220 220 222 224 226 228 233 239 246 252 257 259 258 253 250 249 248 251 255 260 263 264 263 262 264 266 266 265 265 266 267 267 269 273 273 271 269 268 268 270 270 269 269 272 274 273
177 183 191 195 197 200 201 199 198 199 201 202 198 193 189 189 197 206 210 209 208 206 202 199 203 208 207 202 201 202 205 205 200 196 196 197 200 207 217 222 226 229 232 236 243 251 259 265 268 269 268 263 257 253 250 247 250 258 264 266 266 264 261 262 265 270 272 273 273 271 268 269 274 275 271 268 266 264 265 265 263 262 264 267 268
178 180 188 190 192 195 198 200 204 208 208 206 203 199 191 182 184 196 202 203 204 201 197 199 205 206 200 196 199 206 212 216 216 214 212 212 214 218 223 228 232 236 240 246 253 262 269 274 274 273 272 270 264 259 255 254 257 262 265 265 264 266 268 269 270 274 278 278 276 273 268 266 267 268 267 266 264 262 262 262 260 256 255 256 258
180 176 182 185 185 191 200 206 207 205 203 202 201 199 191 177 170 177 187 195 200 197 190 192 198 195 186 183 193 206 214 219 225 230 232 233 234 235 235 236 238 239 242 247 252 259 265 269 268 266 267 268 265 261 260 261 262 262 263 265 270 276 281 281 280 281 283 284 281 278 274 268 264 265 268 270 270 268 266 262 259 257 255 255 257
188 185 189 192 193 198 207 210 206 199 198 200 201 198 190 179 172 178 187 195 201 200 193 190 191 188 178 171 180 201 215 221 228 236 239 239 238 235 230 227 224 215 207 212 228 249 266 273 273 269 266 265 264 262 261 261 261 263 269 276 280 281 282 282 281 281 283 284 283 280 276 273 268 266 267 268 268 269 269 265 263 263 262 261 262
212 209 206 210 212 211 212 209 201 195 193 193 194 192 188 182 178 179 184 186 188 189 187 182 174 165 159 154 155 165 175 182 189 194 194 194 194 188 180 174 165 155 161 188 222 254 266 265 262 260 259 261 264 265 266 267 269 272 276 276 272 271 272 274 276 278 278 276 274 272 271 272 271 270 270 271 271 273 274 273 272 272 271 270 271
213 204 189 193 201 205 206 203 196 187 178 175 180 184 183 179 172 168 168 167 165 164 164 162 154 144 137 136 139 143 146 150 152 152 155 160 157 146 138 135 133 134 146 187 223 235 240 244 250 256 259 262 265 266 265 264 261 258 257 257 261 266 272 276 279 282 282 280 277 275 275 276 277 279 281 284 284 282 279 277 278 279 279 278 277
186 176 152 144 160 176 184 184 181 172 165 166 171 174 171 167 159 150 146 144 142 138 132 128 128 127 123 123 125 124 123 122 117 113 115 117 114 111 114 121 133 154 183 209 225 235 240 245 250 253 252 248 244 240 241 246 250 253 260 266 273 279 285 289 292 295 295 294 294 293 289 285 285 287 289 292 292 290 287 285 286 286 285 283 282
146 148 141 141 146 150 151 152 154 153 150 151 155 159 158 149 137 128 125 122 120 119 118 117 118 116 114 112 108 104 103 102 101 101 103 107 111 121 140 164 187 203 213 220 225 227 222 219 226 232 233 230 230 234 242 252 262 272 281 290 296 302 306 312 318 321 323 326 330 327 316 306 302 300 300 300 299 297 296 295 295 294 292 290 288